Terminal Aerodrome Forecast
Issued by NWS New Orleans/Baton Rouge, LA

Home | Current Version | Previous Version | Text Only | Print | Product List | Glossary On
Versions: 1 2 3 4 5 6 7 8 9 10 11 12 13
000
FTUS44 KLIX 011134
TAFBTR
TAF
KBTR 011134Z 0112/0212 03006KT P6SM SKC
     FM011500 04008KT P6SM FEW250
     FM020100 04004KT P6SM SCT250=

USA.gov is the U.S. government's official web portal to all federal, state and local government web resources and services.